Showing default

KINEIS-5C, 62081

Orbit data source: Space-Track

KINEIS-5C, 62081 is a French payload satellite in SSO that was launched on Mon, 25 Nov 2024 UTC via an ELECTRON launch vehicle from the Rocket Lab Launch Complex (RLLC). Payload-class satellites include a variety of spacecraft equipped with specific instruments for various scientific and technological missions. These include communications satellites like Starlink; space stations such as the ISS; scientific satellites like the Hubble; Earth observation satellites from companies like Planet Labs, Umbra, and HawkEye 360; GPS; miniature CubeSats for education and research; and military/defense satellites.

Loading next visibility...
Identifier
62081, 2024-219A
Orbit
SSO
Country
Flag of FRFR
Related business
Manufacturer
KINEIS
Mission
Operational Commercial Communications
Bus & Motor
CUBESAT 16U, Unknown motor
Mass
28 kg wet, 28 kg dry
Launch date (UTC)
2024-11-25 (10 months ago)
Launch vehicle
ELECTRON
Launch site
Rocket Lab Launch Complex (RLLC)
Object type
Payload
Rocket body
Debris
Shape & HBR
Box + 2 Pan + 1 Ant, 0.8 m
Radar Cross Section
0.229 m², Medium (>0.1 m² and < 1m²)

Expand to show TLE details & history
Last TLE update: 7 hours ago

TLE from 7 hours ago
0 KINEIS-5C
1 62081U 24219A   25259.31268278  .00000844  00000-0  14133-3 0  9996
2 62081  97.9814  58.8327 0002221 134.8407 225.2981 14.72294673 43454
Epoch: 2025-09-16T07:30Z
TLE epoch observation values (Epoch: 2025-09-16T07:30:15.792Z)
Latitude
-0.00003°
Longitude
-49.23788°
Altitude
657.86 km
Speed
7.528 km/s
True Right ascension
03h 55m 19s
True Declination
0° 00' 00"
Sunlit
Object was in full shadow at epoch
Visualization orbit readout
Latitude
Unknown
Longitude
Unknown
Altitude
Unknown
Speed
Unknown
Apparent Right ascension
Unknown
Apparent Declination
Unknown
Sunlit
N/A
Visualization observer readout
Local Sidereal Time
07:11:32
Azimuth
Unknown
Elevation
Unknown
Doppler factor
Unknown
Orbital elements
Apogee altitude
652.368 km
Perigee altitude
649.246 km
Semi-major axis
7,028.944 km
Eccentricity
0.00022
Inclination
97.9814°
RAAN
58.8327°
Arg. of periapsis
134.8407°
True anomaly
225.28001°
Mean anomaly
225.2981°
Eccentric anomaly
225.28906°
Mean motion
3.68305 °/min
Orbital period
97.74 mins
BSTAR
0.00014133
Loading maneuver chart data...
Computing Atmospheric mass density...
Loading historical data...
Loading historical data...
Loading historical data...
Loading historical data...
Loading historical data...
Loading historical data...
Loading historical data...

Documentation

Showing up to 5 results
|